Weather History for Rice Lake, WI

Change the Weather History Date:

Monday, February 3, 2014

  Actual Average Record
Temperature  
Mean Temperature -4 °F -  
Max Temperature 13 °F 25 °F 46 °F (2005)
Min Temperature -22 °F 8 °F -22 °F (2014)
Degree Days  
Heating Degree Days 70    
Moisture  
Dew Point -10 °F    
Average Humidity 75    
Maximum Humidity 88    
Minimum Humidity 66    
Precipitation  
Precipitation 0.00 in - - ()
Sea Level Pressure  
Sea Level Pressure 30.22 in    
Wind  
Wind Speed 1 mph (South)    
Max Wind Speed 6 mph    
Max Gust Speed -    
Visibility 10 miles    
Events Snow    
Averages and records for this station are not official NWS values.
T = Trace of Precipitation, MM = Missing Value Source: NWS Daily Summary

Daily Weather History Graph

Daily Weather History Graph

Search for Another Location

Airport:

Trip Planner

Search our weather history database for the weather conditions in past years. The results will help you decide how hot, cold, wet, or windy it might be!

Date:

Astronomy

Feb. 03, 2014 Rise Set
Actual Time 7:25 AM CST 5:17 PM CST
Civil Twilight 6:54 AM CST 5:48 PM CST
Nautical Twilight 6:18 AM CST 6:23 PM CST
Astronomical Twilight 5:44 AM CST 6:58 PM CST
Moon 9:13 AM CST (2/3) 10:24 PM CST (2/3)
Length of Visible Light 10h 54m
Length of Day
9h 51m
Waxing Crescent, 20% of the Moon is Illuminated
Feb 3
Waxing Crescent
Feb 6
First Quarter
Feb 14
Full
Feb 22
Last Quarter
Mar 1
New

Hourly Weather History & Observations

Time (CST) Temp. Windchill Dew Point Humidity Pressure Visibility Wind Dir Wind Speed Gust Speed Precip Events Conditions
12:15 AM -19.1 °F - -24.9 °F 75% 30.21 in 10.0 mi Calm Calm - N/A   Clear
12:35 AM -19.1 °F - -25.6 °F 72% 30.21 in 10.0 mi Calm Calm - N/A   Clear
12:55 AM -18.8 °F - -25.6 °F 71% 30.21 in 10.0 mi Calm Calm - N/A   Clear
1:15 AM -18.9 °F - -25.4 °F 72% 30.21 in 10.0 mi Calm Calm - N/A   Clear
1:35 AM -22.2 °F - -28.7 °F 72% 30.21 in 10.0 mi Calm Calm - N/A   Clear
1:55 AM -19.3 °F - -25.6 °F 73% 30.21 in 10.0 mi Calm Calm - N/A   Clear
2:15 AM -21.1 °F - -27.8 °F 71% 30.21 in 10.0 mi Calm Calm - N/A   Clear
2:35 AM -21.5 °F - -28.1 °F 71% 30.21 in 10.0 mi Calm Calm - N/A   Clear
2:55 AM -19.1 °F - -25.2 °F 73% 30.21 in 10.0 mi Calm Calm - N/A   Clear
3:15 AM -17.0 °F - -22.7 °F 75% 30.20 in 10.0 mi Calm Calm - N/A   Clear
3:35 AM -21.5 °F - -27.9 °F 72% 30.19 in 10.0 mi Calm Calm - N/A   Clear
3:55 AM -21.1 °F - -27.4 °F 73% 30.19 in 10.0 mi Calm Calm - N/A   Clear
4:15 AM -20.7 °F -31.5 °F -27.0 °F 73% 30.19 in 10.0 mi SE 3.5 mph - N/A   Clear
4:35 AM -20.2 °F -30.9 °F -26.3 °F 73% 30.19 in 10.0 mi ESE 3.5 mph - N/A   Clear
4:55 AM -19.1 °F - -25.4 °F 73% 30.20 in 10.0 mi Calm Calm - N/A   Clear
5:15 AM -16.1 °F -26.2 °F -20.2 °F 82% 30.19 in 10.0 mi ESE 3.5 mph - N/A   Clear
5:35 AM -16.6 °F -26.8 °F -22.0 °F 76% 30.18 in 10.0 mi SE 3.5 mph - N/A   Clear
5:55 AM -20.6 °F -31.3 °F -26.9 °F 73% 30.18 in 10.0 mi SE 3.5 mph - N/A   Clear
6:15 AM -20.4 °F -31.1 °F -27.2 °F 71% 30.18 in 10.0 mi SE 3.5 mph - N/A   Clear
6:35 AM -19.8 °F - -26.1 °F 73% 30.18 in 10.0 mi Calm Calm - N/A   Clear
6:55 AM -18.4 °F -28.9 °F -23.6 °F 77% 30.18 in 10.0 mi SE 3.5 mph - N/A   Clear
7:15 AM -14.3 °F -24.1 °F -18.8 °F 80% 30.18 in 10.0 mi SE 3.5 mph - N/A   Clear
7:35 AM -11.6 °F - -15.7 °F 82% 30.18 in 10.0 mi Calm Calm - N/A   Clear
7:55 AM -17.3 °F - -23.1 °F 75% 30.19 in 7.0 mi Calm Calm - N/A   Clear
8:15 AM -15.3 °F - -20.6 °F 77% 30.20 in 10.0 mi Calm Calm - N/A   Clear
8:35 AM -11.7 °F - -16.1 °F 81% 30.20 in 10.0 mi Calm Calm - N/A   Clear
8:55 AM -5.3 °F -16.0 °F -9.4 °F 82% 30.19 in 10.0 mi ESE 4.6 mph - N/A   Clear
9:15 AM -4.5 °F -13.0 °F -8.7 °F 82% 30.21 in 10.0 mi SE 3.5 mph - N/A   Clear
9:35 AM -3.3 °F - -7.8 °F 81% 30.20 in 5.0 mi Calm Calm - N/A Snow Light Snow
9:55 AM -1.5 °F -9.5 °F -5.8 °F 82% 30.21 in 10.0 mi SE 3.5 mph - N/A   Clear
10:15 AM 0.7 °F - -4.0 °F 81% 30.20 in 10.0 mi Calm Calm - N/A Snow Light Snow
10:35 AM 2.5 °F -5.0 °F -2.7 °F 79% 30.21 in 10.0 mi SE 3.5 mph - N/A Snow Light Snow
10:55 AM 4.1 °F -3.2 °F -2.0 °F 76% 30.21 in 10.0 mi SE 3.5 mph - N/A   Clear
11:15 AM 5.7 °F -1.3 °F -1.1 °F 73% 30.21 in 10.0 mi ESE 3.5 mph - N/A   Clear
11:35 AM 7.3 °F - -0.2 °F 71% 30.20 in 10.0 mi Calm Calm - N/A   Clear
11:55 AM 8.2 °F - 0.9 °F 72% 30.20 in 10.0 mi Calm Calm - N/A   Clear
12:15 PM 8.4 °F - 1.0 °F 72% 30.19 in 10.0 mi Calm Calm - N/A   Clear
12:35 PM 9.5 °F - 1.4 °F 70% 30.19 in 10.0 mi Calm Calm - N/A   Clear
12:55 PM 10.2 °F - 2.1 °F 70% 30.19 in 10.0 mi Calm Calm - N/A   Clear
1:15 PM 10.4 °F - 2.3 °F 70% 30.19 in 10.0 mi Calm Calm - N/A   Clear
1:35 PM 11.3 °F 5.1 °F 2.5 °F 68% 30.18 in 10.0 mi SW 3.5 mph - N/A   Clear
1:55 PM 11.3 °F - 2.7 °F 68% 30.18 in 10.0 mi Calm Calm - N/A   Clear
2:15 PM 12.4 °F - 3.2 °F 67% 30.19 in 10.0 mi Calm Calm - N/A   Clear
2:35 PM 13.3 °F 5.6 °F 3.9 °F 66% 30.20 in 10.0 mi WSW 4.6 mph - N/A   Clear
2:55 PM 13.1 °F 4.0 °F 3.9 °F 67% 30.20 in 10.0 mi WSW 5.8 mph - N/A   Clear
3:15 PM 13.1 °F 5.4 °F 3.9 °F 67% 30.20 in 10.0 mi WSW 4.6 mph - N/A   Clear
3:35 PM 13.1 °F 4.0 °F 4.1 °F 67% 30.21 in 10.0 mi SW 5.8 mph - N/A   Clear
3:55 PM 13.1 °F 5.4 °F 4.1 °F 67% 30.21 in 10.0 mi SSW 4.6 mph - N/A   Clear
4:15 PM 12.9 °F 5.2 °F 4.1 °F 68% 30.22 in 10.0 mi SW 4.6 mph - N/A   Clear
4:35 PM 12.9 °F 3.8 °F 4.1 °F 68% 30.22 in 10.0 mi SW 5.8 mph - N/A   Clear
4:55 PM 12.6 °F 6.5 °F 3.9 °F 68% 30.22 in 10.0 mi SW 3.5 mph - N/A   Clear
5:15 PM 12.2 °F 6.1 °F 3.6 °F 68% 30.23 in 10.0 mi SW 3.5 mph - N/A   Clear
5:35 PM 11.3 °F 3.3 °F 3.4 °F 70% 30.25 in 10.0 mi SW 4.6 mph - N/A   Mostly Cloudy
5:55 PM 11.7 °F 3.7 °F 3.6 °F 70% 30.26 in 10.0 mi SW 4.6 mph - N/A   Mostly Cloudy
6:15 PM 11.7 °F 5.5 °F 3.2 °F 69% 30.26 in 10.0 mi WSW 3.5 mph - N/A   Scattered Clouds
6:35 PM 10.9 °F 4.7 °F 2.8 °F 70% 30.26 in 10.0 mi WSW 3.5 mph - N/A   Clear
6:55 PM 10.4 °F - 2.8 °F 72% 30.27 in 10.0 mi Calm Calm - N/A   Clear
7:15 PM 9.7 °F - 2.5 °F 73% 30.27 in 10.0 mi Calm Calm - N/A   Clear
7:35 PM 9.0 °F - 2.5 °F 75% 30.27 in 10.0 mi Calm Calm - N/A   Clear
7:55 PM 7.3 °F - 1.8 °F 78% 30.27 in 10.0 mi Calm Calm - N/A   Clear
8:15 PM 3.4 °F - -0.9 °F 82% 30.27 in 10.0 mi Calm Calm - N/A   Clear
8:35 PM 2.3 °F - -1.1 °F 86% 30.27 in 10.0 mi Calm Calm - N/A   Clear
8:55 PM 0.5 °F - -2.9 °F 85% 30.28 in 10.0 mi Calm Calm - N/A   Clear
9:15 PM -0.2 °F - -2.9 °F 88% 30.28 in 10.0 mi Calm Calm - N/A   Clear
9:35 PM -2.6 °F - -6.0 °F 85% 30.28 in 10.0 mi Calm Calm - N/A   Clear
9:55 PM -2.4 °F - -5.3 °F 88% 30.28 in 7.0 mi Calm Calm - N/A   Clear
10:15 PM -4.7 °F - -8.0 °F 86% 30.29 in 7.0 mi Calm Calm - N/A   Clear
10:35 PM -5.4 °F - -9.4 °F 83% 30.30 in 10.0 mi Calm Calm - N/A   Clear
10:55 PM -7.4 °F - -11.7 °F 81% 30.30 in 10.0 mi Calm Calm - N/A   Clear
11:15 PM -9.2 °F - -13.7 °F 81% 30.32 in 10.0 mi Calm Calm - N/A   Clear
11:35 PM -9.8 °F - -14.4 °F 80% 30.32 in 10.0 mi Calm Calm - N/A   Clear
11:55 PM -9.6 °F - -14.3 °F 80% 30.34 in 10.0 mi Calm Calm - N/A   Clear